Ravenna, OH

10:52 PM EST on December 09, 2016 (GMT -0500)
Ravenna

Weather History for KPOV - August, 2013

Change the Weather History Date:

Tuesday, August 6, 2013

  Actual Average (KCAK) Record (KCAK)
Temperature  
Mean Temperature 66 °F -  
Max Temperature 78 °F 80 °F 104 °F (1918)
Min Temperature 53 °F 60 °F 47 °F (1948)
Growing Degree Days 16 (Base 50)    
Moisture  
Dew Point 58 °F    
Average Humidity 77    
Maximum Humidity 100    
Minimum Humidity 47    
Precipitation  
Precipitation 0.00 in - - ()
Sea Level Pressure  
Sea Level Pressure 30.02 in    
Wind  
Wind Speed 1 mph (ESE)    
Max Wind Speed 8 mph    
Max Gust Speed -    
Visibility 10 miles    
Events      
Averages and records for this station are not official NWS values.
T = Trace of Precipitation, MM = Missing Value Source: NWS Daily Summary

Daily Weather History Graph

Daily Weather History Graph

Search for Another Location

Airport or City:

Trip Planner

Search our weather history database for the weather conditions in past years. The results will help you decide how hot, cold, wet, or windy it might be!

Date:

Astronomy

Aug. 06, 2013 Rise Set
Actual Time 6:25 AM EDT 8:35 PM EDT
Civil Twilight 5:55 AM EDT 9:05 PM EDT
Nautical Twilight 5:17 AM EDT 9:43 PM EDT
Astronomical Twilight 4:36 AM EDT 10:24 PM EDT
Moon 6:16 AM EDT (8/6) 8:08 PM EDT (8/6)
Length of Visible Light 15h 10m
Length of Day
14h 09m
Waning Crescent, 0% of the Moon is Illuminated
Aug 6
Waning Crescent
Aug 6
New
Aug 14
First Quarter
Aug 20
Full
Aug 28
Last Quarter

Hourly Weather History & Observations

Time (EDT) Temp. Dew Point Humidity Pressure Visibility Wind Dir Wind Speed Gust Speed Precip Events Conditions
12:13 AM 58.1 °F 58.1 °F 100% 30.03 in 10.0 mi Calm Calm - N/A   Overcast
12:34 AM 58.1 °F 58.1 °F 100% 30.03 in 10.0 mi Calm Calm - N/A   Overcast
12:53 AM 58.1 °F 58.3 °F 100% 30.04 in 10.0 mi Calm Calm - N/A   Overcast
1:13 AM 58.3 °F 58.5 °F 100% 30.04 in 10.0 mi Calm Calm - N/A   Overcast
1:33 AM 58.1 °F 58.1 °F 100% 30.03 in 10.0 mi Calm Calm - N/A   Overcast
1:54 AM 58.1 °F 58.3 °F 100% 30.04 in 10.0 mi Calm Calm - N/A   Overcast
2:13 AM 58.1 °F 58.3 °F 100% 30.04 in 10.0 mi Calm Calm - N/A   Overcast
2:33 AM 58.1 °F 58.3 °F 100% 30.04 in 10.0 mi Calm Calm - N/A   Overcast
2:53 AM 57.6 °F 57.7 °F 100% 30.03 in 10.0 mi Calm Calm - N/A   Mostly Cloudy
3:13 AM 57.2 °F 57.2 °F 100% 30.03 in 10.0 mi Calm Calm - N/A   Overcast
3:34 AM 56.3 °F 56.5 °F 100% 30.03 in 10.0 mi Calm Calm - N/A   Scattered Clouds
3:53 AM 55.8 °F 56.1 °F 100% 30.03 in 10.0 mi Calm Calm - N/A   Clear
4:13 AM 54.9 °F 55.0 °F 100% 30.03 in 10.0 mi Calm Calm - N/A   Clear
4:33 AM 55.0 °F 55.2 °F 100% 30.03 in 10.0 mi Calm Calm - N/A   Clear
4:53 AM - - N/A% 30.03 in 10.0 mi Calm Calm - N/A   Clear
5:13 AM 55.0 °F 55.0 °F 100% 30.03 in 10.0 mi Calm Calm - N/A   Clear
5:33 AM 53.6 °F 53.6 °F 100% 30.03 in 5.0 mi East 3.5 mph - N/A   Clear
5:53 AM 55.4 °F 55.4 °F 100% 30.03 in 10.0 mi ESE 3.5 mph - N/A   Mostly Cloudy
6:13 AM - - N/A% 30.03 in 10.0 mi Calm Calm - N/A   Overcast
6:33 AM 56.3 °F 56.5 °F 100% 30.03 in 10.0 mi Calm Calm - N/A   Overcast
6:54 AM 57.9 °F 57.9 °F 100% 30.03 in 10.0 mi Calm Calm - N/A   Overcast
7:13 AM 58.1 °F 58.3 °F 100% 30.02 in 10.0 mi Calm Calm - N/A   Overcast
7:33 AM 59.5 °F 57.2 °F 92% 30.02 in 10.0 mi Calm Calm - N/A   Overcast
7:53 AM 60.8 °F 58.3 °F 91% 30.03 in 10.0 mi Calm Calm - N/A   Mostly Cloudy
8:13 AM 61.3 °F 57.4 °F 87% 30.04 in 10.0 mi Calm Calm - N/A   Mostly Cloudy
8:34 AM 63.5 °F 58.8 °F 85% 30.04 in 10.0 mi Calm Calm - N/A   Overcast
8:53 AM 63.5 °F 57.7 °F 81% 30.04 in 10.0 mi Calm Calm - N/A   Overcast
9:13 AM 63.9 °F 58.6 °F 83% 30.05 in 10.0 mi Calm Calm - N/A   Overcast
9:33 AM 64.9 °F 58.1 °F 78% 30.05 in 10.0 mi Calm Calm - N/A   Overcast
9:53 AM 66.4 °F 57.4 °F 73% 30.05 in 10.0 mi Calm Calm - N/A   Overcast
10:13 AM 67.6 °F 55.9 °F 66% 30.05 in 10.0 mi SSE 3.5 mph - N/A   Overcast
10:33 AM 69.1 °F 54.9 °F 60% 30.05 in 10.0 mi Calm Calm - N/A   Overcast
10:53 AM 70.3 °F 56.7 °F 62% 30.05 in 10.0 mi Calm Calm - N/A   Overcast
11:13 AM 72.3 °F 55.8 °F 56% 30.04 in 10.0 mi ESE 4.6 mph - N/A   Scattered Clouds
11:33 AM 72.7 °F 55.6 °F 55% 30.04 in 10.0 mi ESE 3.5 mph - N/A   Scattered Clouds
11:53 AM 74.3 °F 55.9 °F 53% 30.04 in 10.0 mi East 4.6 mph - N/A   Scattered Clouds
12:13 PM 73.9 °F 54.5 °F 51% 30.03 in 10.0 mi ESE 5.8 mph - N/A   Clear
12:33 PM 74.5 °F 55.6 °F 52% 30.03 in 10.0 mi East 8.1 mph - N/A   Clear
12:53 PM 76.1 °F 56.3 °F 50% 30.02 in 10.0 mi ESE 6.9 mph - N/A   Clear
1:13 PM 74.5 °F 55.8 °F 52% 30.03 in 10.0 mi ESE 6.9 mph - N/A   Clear
1:33 PM 74.3 °F 55.6 °F 52% 30.02 in 10.0 mi SE 6.9 mph - N/A   Clear
1:54 PM 75.9 °F 55.8 °F 49% 30.01 in 10.0 mi SE 6.9 mph - N/A   Clear
2:13 PM 75.4 °F 57.0 °F 53% 30.02 in 10.0 mi ESE 6.9 mph - N/A   Mostly Cloudy
2:33 PM 76.1 °F 55.8 °F 49% 30.03 in 10.0 mi ESE 5.8 mph - N/A   Mostly Cloudy
2:54 PM 75.4 °F 56.1 °F 51% 30.03 in 10.0 mi ESE 5.8 mph - N/A   Scattered Clouds
3:13 PM 75.2 °F 55.8 °F 51% 30.02 in 10.0 mi SE 3.5 mph - N/A   Scattered Clouds
3:33 PM 78.4 °F 57.6 °F 49% 30.02 in 10.0 mi SSE 4.6 mph - N/A   Scattered Clouds
3:54 PM 76.1 °F 55.9 °F 50% 30.01 in 10.0 mi ESE 5.8 mph - N/A   Scattered Clouds
4:13 PM 76.5 °F 54.9 °F 47% 30.01 in 10.0 mi SE 5.8 mph - N/A   Mostly Cloudy
4:33 PM 76.1 °F 56.3 °F 50% 30.00 in 10.0 mi ESE 4.6 mph - N/A   Overcast
4:53 PM 75.2 °F 56.3 °F 52% 30.00 in 10.0 mi SE 4.6 mph - N/A   Overcast
5:13 PM 76.3 °F 56.7 °F 51% 30.00 in 10.0 mi ESE 4.6 mph - N/A   Overcast
5:33 PM 77.2 °F 55.9 °F 48% 30.00 in 10.0 mi SE 3.5 mph - N/A   Overcast
5:53 PM 75.6 °F 57.4 °F 53% 30.00 in 10.0 mi ESE 4.6 mph - N/A   Overcast
6:13 PM 75.6 °F 57.7 °F 54% 30.00 in 10.0 mi SE 4.6 mph - N/A   Overcast
6:33 PM 75.6 °F 56.8 °F 52% 30.00 in 10.0 mi ESE 3.5 mph - N/A   Mostly Cloudy
6:53 PM 75.9 °F 57.4 °F 52% 30.00 in 10.0 mi Calm Calm - N/A   Mostly Cloudy
7:13 PM 75.2 °F 58.1 °F 55% 29.99 in 10.0 mi ESE 4.6 mph - N/A   Scattered Clouds
7:33 PM 74.8 °F 59.0 °F 58% 29.99 in 10.0 mi Calm Calm - N/A   Clear
7:53 PM 72.5 °F 59.2 °F 63% 29.99 in 10.0 mi ESE 3.5 mph - N/A   Clear
8:13 PM 71.4 °F 58.5 °F 64% 29.99 in 10.0 mi Calm Calm - N/A   Clear
8:33 PM 69.1 °F 59.9 °F 72% 29.99 in 10.0 mi Calm Calm - N/A   Clear
8:53 PM 66.7 °F 59.9 °F 79% 29.99 in 10.0 mi Calm Calm - N/A   Clear
9:13 PM 64.9 °F 61.7 °F 89% 29.99 in 10.0 mi Calm Calm - N/A   Clear
9:34 PM 64.6 °F 62.2 °F 92% 29.99 in 10.0 mi Calm Calm - N/A   Clear
9:53 PM 63.7 °F 62.8 °F 97% 29.99 in 10.0 mi Calm Calm - N/A   Clear
10:13 PM 63.0 °F 62.6 °F 99% 30.00 in 10.0 mi Calm Calm - N/A   Clear
10:34 PM 62.4 °F 62.4 °F 100% 30.00 in 10.0 mi Calm Calm - N/A   Clear
10:53 PM 61.9 °F 62.1 °F 100% 30.00 in 10.0 mi Calm Calm - N/A   Clear
11:13 PM 61.0 °F 61.2 °F 100% 29.99 in 10.0 mi Calm Calm - N/A   Clear
11:33 PM 60.8 °F 60.8 °F 100% 29.99 in 10.0 mi Calm Calm - N/A   Clear
11:54 PM 60.6 °F 60.8 °F 100% 29.98 in 10.0 mi Calm Calm - N/A   Clear